TimeEST,TemperatureF,Dew PointF,Humidity,Sea Level PressureIn,VisibilityMPH,Wind Direction,Wind SpeedMPH,Gust SpeedMPH,PrecipitationIn,Events,Conditions,WindDirDegrees,DateUTC
12:55 AM,44.4,34.2,67,30.35,10.0,ENE,13.8,-,N/A,,Overcast,60,2012-11-15 05:55:00
1:55 AM,43.9,33.1,66,30.33,10.0,ENE,10.4,-,N/A,,Overcast,60,2012-11-15 06:55:00
2:55 AM,43.7,33.3,67,30.33,10.0,NNE,5.8,-,N/A,,Overcast,30,2012-11-15 07:55:00
3:55 AM,43.2,34.2,71,30.31,10.0,NE,8.1,-,N/A,,Overcast,40,2012-11-15 08:55:00
4:55 AM,42.8,33.4,70,30.31,10.0,NE,11.5,-,N/A,,Overcast,40,2012-11-15 09:55:00
5:25 AM,42.8,33.8,70,30.30,10.0,NE,10.4,-,N/A,,Overcast,40,2012-11-15 10:25:00
5:55 AM,42.4,33.3,70,30.30,10.0,NE,9.2,-,N/A,,Overcast,50,2012-11-15 10:55:00
6:55 AM,42.4,33.4,70,30.31,10.0,NNE,8.1,-,N/A,,Overcast,30,2012-11-15 11:55:00
6:59 AM,42.8,33.8,70,30.31,9.0,NNE,10.4,-,N/A,,Light Drizzle,30,2012-11-15 11:59:00
7:13 AM,42.8,33.8,70,30.32,9.0,NNE,8.1,-,N/A,,Overcast,20,2012-11-15 12:13:00
7:15 AM,42.8,33.8,70,30.32,9.0,North,8.1,-,N/A,,Overcast,10,2012-11-15 12:15:00
7:38 AM,41.0,32.0,70,30.33,10.0,North,10.4,-,N/A,Rain,Light Rain,10,2012-11-15 12:38:00
7:55 AM,40.8,34.3,78,30.33,10.0,North,9.2,-,0.00,Rain,Light Rain,10,2012-11-15 12:55:00
8:14 AM,41.0,33.8,76,30.34,10.0,NNW,10.4,-,N/A,,Overcast,340,2012-11-15 13:14:00
8:21 AM,41.0,33.8,76,30.35,10.0,NNW,8.1,-,N/A,,Light Drizzle,330,2012-11-15 13:21:00
8:26 AM,41.0,33.8,76,30.35,10.0,NNW,6.9,-,N/A,,Overcast,330,2012-11-15 13:26:00
8:47 AM,39.2,33.8,81,30.35,10.0,North,8.1,-,N/A,Rain,Light Rain,360,2012-11-15 13:47:00
8:55 AM,39.7,34.9,83,30.35,10.0,North,5.8,-,0.00,Rain,Light Rain,350,2012-11-15 13:55:00
9:03 AM,39.2,35.6,87,30.35,6.0,North,5.8,-,N/A,Rain,Rain,350,2012-11-15 14:03:00
9:33 AM,39.2,35.6,87,30.32,2.5,NE,11.5,-,N/A,Rain,Rain,40,2012-11-15 14:33:00
9:39 AM,39.2,37.4,93,30.32,3.0,NE,8.1,-,N/A,Rain,Rain,40,2012-11-15 14:39:00
9:51 AM,39.2,37.4,93,30.32,3.0,NE,8.1,-,N/A,Rain,Heavy Rain,50,2012-11-15 14:51:00
9:55 AM,39.0,36.7,91,30.32,3.0,ENE,6.9,-,0.12,Rain,Heavy Rain,60,2012-11-15 14:55:00
9:56 AM,39.2,37.4,93,30.32,2.5,ENE,5.8,-,N/A,Rain,Rain,60,2012-11-15 14:56:00
10:07 AM,39.2,37.4,93,30.33,3.0,NNE,5.8,-,N/A,Rain,Rain,30,2012-11-15 15:07:00
10:18 AM,39.2,37.4,93,30.34,2.5,Calm,Calm,-,N/A,Rain,Heavy Rain,0,2012-11-15 15:18:00
10:23 AM,39.2,37.4,93,30.34,2.0,Calm,Calm,-,N/A,Rain,Heavy Rain,0,2012-11-15 15:23:00
10:24 AM,39.2,37.4,93,30.34,1.8,Calm,Calm,-,N/A,Rain,Heavy Rain,0,2012-11-15 15:24:00
10:27 AM,39.2,37.4,93,30.34,1.5,NE,4.6,-,N/A,Rain,Heavy Rain,40,2012-11-15 15:27:00
10:33 AM,39.2,37.4,93,30.34,1.8,NE,3.5,-,N/A,Rain,Rain,50,2012-11-15 15:33:00
10:34 AM,39.2,37.4,93,30.34,2.0,NE,4.6,-,N/A,Rain,Rain,40,2012-11-15 15:34:00
10:37 AM,39.2,37.4,93,30.33,2.5,NNE,4.6,-,N/A,Rain,Rain,30,2012-11-15 15:37:00
10:41 AM,39.2,37.4,93,30.33,3.0,North,4.6,-,N/A,Rain,Heavy Rain,10,2012-11-15 15:41:00
10:55 AM,39.4,38.1,95,30.32,4.0,North,5.8,-,0.29,Rain,Heavy Rain,360,2012-11-15 15:55:00
11:44 AM,41.0,39.2,93,30.32,8.0,Calm,Calm,-,N/A,Rain,Light Rain,0,2012-11-15 16:44:00
11:55 AM,41.5,39.7,93,30.32,9.0,Calm,Calm,-,0.13,Rain,Light Rain,0,2012-11-15 16:55:00
11:58 AM,41.0,39.2,93,30.32,8.0,NW,3.5,-,N/A,Rain,Light Rain,310,2012-11-15 16:58:00
12:11 PM,41.0,39.2,93,30.31,6.0,North,3.5,-,N/A,Rain,Rain,350,2012-11-15 17:11:00
12:20 PM,41.0,39.2,93,30.30,6.0,NNE,5.8,-,N/A,Rain,Light Rain,20,2012-11-15 17:20:00
12:52 PM,41.0,41.0,100,30.27,2.5,ENE,6.9,-,N/A,Rain,Rain,60,2012-11-15 17:52:00
12:55 PM,41.7,40.5,95,30.27,2.0,NE,10.4,-,0.09,Rain,Rain,50,2012-11-15 17:55:00
1:00 PM,41.0,41.0,100,30.26,1.8,NE,10.4,-,N/A,Rain,Heavy Rain,50,2012-11-15 18:00:00
1:04 PM,41.0,41.0,100,30.26,2.0,NE,10.4,-,N/A,Rain,Rain,40,2012-11-15 18:04:00
1:18 PM,41.0,41.0,100,30.25,2.0,NE,9.2,-,N/A,Rain,Rain,40,2012-11-15 18:18:00
1:19 PM,42.8,41.0,93,30.25,2.5,NE,9.2,-,N/A,Rain,Rain,40,2012-11-15 18:19:00
1:27 PM,42.8,41.0,93,30.24,2.0,NE,11.5,-,N/A,Rain,Rain,50,2012-11-15 18:27:00
1:35 PM,42.8,41.0,93,30.25,2.5,NNE,8.1,-,N/A,Rain,Heavy Rain,20,2012-11-15 18:35:00
1:36 PM,42.8,41.0,93,30.25,2.5,NNE,6.9,-,N/A,Rain,Heavy Rain,30,2012-11-15 18:36:00
1:38 PM,42.8,41.0,93,30.24,2.5,NNE,9.2,-,N/A,Rain,Heavy Rain,30,2012-11-15 18:38:00
1:40 PM,42.8,41.0,93,30.24,3.0,NNE,10.4,-,N/A,Rain,Heavy Rain,30,2012-11-15 18:40:00
1:47 PM,42.8,41.0,93,30.24,2.5,NE,10.4,-,N/A,Rain,Heavy Rain,40,2012-11-15 18:47:00
1:55 PM,42.1,40.8,95,30.24,2.5,NE,10.4,-,0.20,Rain,Light Rain,50,2012-11-15 18:55:00
1:56 PM,42.8,41.0,93,30.25,2.5,NE,10.4,-,N/A,Rain,Light Rain,40,2012-11-15 18:56:00
1:57 PM,42.8,41.0,93,30.25,3.0,NE,10.4,-,N/A,Rain,Light Rain,40,2012-11-15 18:57:00
2:11 PM,42.8,41.0,93,30.25,5.0,NE,6.9,-,N/A,,Overcast,40,2012-11-15 19:11:00
2:12 PM,42.8,41.0,93,30.25,5.0,NNE,5.8,-,N/A,,Overcast,30,2012-11-15 19:12:00
2:55 PM,43.5,42.1,95,30.22,4.0,NNE,10.4,-,0.00,,Mostly Cloudy,30,2012-11-15 19:55:00
3:01 PM,42.8,42.8,100,30.24,6.0,NNE,4.6,-,N/A,,Mostly Cloudy,20,2012-11-15 20:01:00
3:19 PM,44.6,42.8,93,30.25,10.0,NW,5.8,-,N/A,,Overcast,320,2012-11-15 20:19:00
3:36 PM,44.6,42.8,93,30.25,10.0,NW,3.5,-,N/A,,Overcast,320,2012-11-15 20:36:00
3:49 PM,44.6,42.8,93,30.25,10.0,North,5.8,-,N/A,Rain,Light Rain,350,2012-11-15 20:49:00
3:55 PM,44.4,42.4,93,30.25,10.0,North,8.1,-,0.00,Rain,Light Rain,360,2012-11-15 20:55:00
4:06 PM,44.6,42.8,93,30.26,10.0,North,3.5,-,N/A,Rain,Light Rain,360,2012-11-15 21:06:00
4:21 PM,44.6,42.8,93,30.26,10.0,North,3.5,-,N/A,,Overcast,350,2012-11-15 21:21:00
4:49 PM,44.6,42.8,93,30.26,10.0,North,5.8,-,N/A,,Overcast,10,2012-11-15 21:49:00
4:55 PM,44.6,42.6,93,30.27,10.0,NNE,3.5,-,0.00,,Overcast,20,2012-11-15 21:55:00
5:33 PM,44.6,42.8,93,30.26,10.0,NNE,4.6,-,N/A,,Overcast,30,2012-11-15 22:33:00
5:36 PM,44.6,42.8,93,30.26,10.0,North,3.5,-,N/A,,Overcast,10,2012-11-15 22:36:00
5:55 PM,44.4,42.8,94,30.26,10.0,Variable,4.6,-,N/A,,Overcast,0,2012-11-15 22:55:00
6:05 PM,44.6,42.8,93,30.26,10.0,NNE,6.9,-,N/A,,Overcast,30,2012-11-15 23:05:00
6:16 PM,44.6,42.8,93,30.26,10.0,NNE,5.8,-,N/A,,Overcast,30,2012-11-15 23:16:00
6:21 PM,44.6,42.8,93,30.26,9.0,NE,5.8,-,N/A,,Overcast,40,2012-11-15 23:21:00
6:32 PM,44.6,42.8,93,30.26,9.0,NE,5.8,-,N/A,,Overcast,40,2012-11-15 23:32:00
6:53 PM,44.6,42.8,93,30.27,10.0,North,4.6,-,N/A,,Overcast,10,2012-11-15 23:53:00
6:55 PM,44.4,42.8,94,30.26,10.0,NNE,3.5,-,N/A,,Overcast,20,2012-11-15 23:55:00
7:05 PM,44.6,42.8,93,30.26,10.0,NE,6.9,-,N/A,,Overcast,40,2012-11-16 00:05:00
7:23 PM,44.6,42.8,93,30.26,10.0,North,5.8,-,N/A,,Overcast,10,2012-11-16 00:23:00
7:24 PM,44.6,42.8,93,30.26,10.0,NNE,5.8,-,N/A,,Overcast,20,2012-11-16 00:24:00
7:25 PM,44.6,42.8,93,30.26,10.0,North,4.6,-,N/A,,Overcast,10,2012-11-16 00:25:00
7:28 PM,44.6,42.8,93,30.26,10.0,NNE,4.6,-,N/A,,Overcast,20,2012-11-16 00:28:00
7:51 PM,44.6,42.8,93,30.27,10.0,North,3.5,-,N/A,,Overcast,360,2012-11-16 00:51:00
7:55 PM,44.6,43.2,95,30.27,10.0,Calm,Calm,-,N/A,,Overcast,0,2012-11-16 00:55:00
8:01 PM,44.6,42.8,93,30.27,10.0,Calm,Calm,-,N/A,,Overcast,0,2012-11-16 01:01:00
8:39 PM,44.6,42.8,93,30.27,10.0,North,5.8,-,N/A,,Overcast,350,2012-11-16 01:39:00
8:55 PM,44.6,43.2,95,30.28,10.0,North,8.1,-,N/A,,Overcast,360,2012-11-16 01:55:00
9:13 PM,44.6,42.8,93,30.28,10.0,North,4.6,-,N/A,,Overcast,10,2012-11-16 02:13:00
9:14 PM,44.6,42.8,93,30.28,10.0,North,5.8,-,N/A,,Overcast,10,2012-11-16 02:14:00
9:19 PM,44.6,42.8,93,30.28,10.0,North,6.9,-,N/A,,Overcast,360,2012-11-16 02:19:00
9:21 PM,44.6,42.8,93,30.28,10.0,North,9.2,-,N/A,,Overcast,360,2012-11-16 02:21:00
9:26 PM,44.6,42.8,93,30.28,10.0,North,8.1,-,N/A,,Overcast,360,2012-11-16 02:26:00
9:27 PM,44.6,42.8,93,30.28,10.0,North,8.1,-,N/A,,Overcast,360,2012-11-16 02:27:00
9:29 PM,44.6,42.8,93,30.28,10.0,North,8.1,-,N/A,,Overcast,360,2012-11-16 02:29:00
9:31 PM,44.6,42.8,93,30.28,10.0,North,8.1,-,N/A,,Overcast,360,2012-11-16 02:31:00
9:32 PM,44.6,42.8,93,30.28,10.0,North,8.1,-,N/A,,Overcast,350,2012-11-16 02:32:00
9:35 PM,44.6,42.8,93,30.28,10.0,North,6.9,-,N/A,,Overcast,360,2012-11-16 02:35:00
9:44 PM,44.6,42.8,93,30.27,10.0,North,6.9,-,N/A,,Overcast,10,2012-11-16 02:44:00
9:52 PM,44.6,42.8,93,30.28,10.0,NNE,4.6,-,N/A,,Overcast,20,2012-11-16 02:52:00
9:55 PM,44.8,43.5,95,30.28,10.0,North,6.9,-,N/A,,Overcast,10,2012-11-16 02:55:00
10:12 PM,44.6,42.8,93,30.27,9.0,NNE,6.9,-,N/A,,Light Drizzle,20,2012-11-16 03:12:00
10:21 PM,44.6,42.8,93,30.27,10.0,NNE,5.8,-,N/A,,Overcast,20,2012-11-16 03:21:00
10:24 PM,44.6,42.8,93,30.27,9.0,NNE,5.8,-,N/A,,Overcast,20,2012-11-16 03:24:00
10:55 PM,45.0,43.5,95,30.27,8.0,NNE,5.8,-,0.00,,Overcast,20,2012-11-16 03:55:00
10:58 PM,44.6,42.8,93,30.27,7.0,NNE,4.6,-,N/A,,Overcast,30,2012-11-16 03:58:00
11:06 PM,44.6,42.8,93,30.27,7.0,NE,6.9,-,N/A,,Overcast,50,2012-11-16 04:06:00
11:17 PM,44.6,42.8,93,30.27,8.0,NNE,6.9,-,N/A,,Overcast,20,2012-11-16 04:17:00
11:28 PM,44.6,42.8,93,30.28,10.0,NNE,6.9,-,N/A,,Overcast,30,2012-11-16 04:28:00
11:55 PM,45.1,43.5,94,30.27,10.0,NNE,4.6,-,N/A,,Overcast,20,2012-11-16 04:55:00